Barcelona, Spain

12:02 AM CET en Noviembre 19, 2017 (GMT +0100)
El Prat

Tiempo Historia de LEBL - Julio, 2017

Change the Weather History Date:

Lunes, Julio 17, 2017

  Actual Average Record
Temperature  
Temperatura media 80 ° F -  
Temperatura máxima 85 ° F 80 ° F 86 ° F (1996)
Temperatura mínima 74 ° F 68 ° F 60 ° F (2001)
Cooling Degree Days 14    
Growing Degree Days 30 (Base 50)    
Moisture  
Punto de rocío 67 ° F    
Average Humidity 63    
Maximum Humidity 74    
Minimum Humidity 46    
Precipitación  
Precipitación 0.00 pul 0.06 pul - ()
Presión al nivel del mar  
Presión al nivel del mar 30.09 pul    
Viento  
Velocidad del viento 6 mph ()    
Velocidad máxima del viento 12 mph    
Max Gust Speed -    
Visibilidad 10.4 Millas    
Eventos      
Averages and records for this station are not official NWS values.
T = Trace of Precipitation, MM = Missing Value Source: Averaged Metar Reports

Daily Weather History Graph

Daily Weather History Graph

Search for Another Location

Airport or City:

Trip Planner

Search our weather history database for the weather conditions in past years. The results will help you decide how hot, cold, wet, or windy it might be!

Date:

Astronomía

Jul. 17, 2017 Salida Puesta
Hora real 6:33 AM CEST 9:22 PM CEST
Crepúsculo civil 6:00 AM CEST 9:54 PM CEST
Crepúsculo náutico 5:19 AM CEST 10:35 PM CEST
Crepúsculo astronómico 4:32 AM CEST 11:22 PM CEST
Luna 1:37 AM CEST (7/17) 2:53 PM CEST (7/17)
Horas de luz 15h 53m
Horas de luz
14h 48m
Cuarto menguante, 43% of the Moon is Illuminated
Jul 17
Cuarto menguante
Jul 23
Nueva
Jul 30
Cuarto creciente
Ago 7
Luna llena
Ago 15
Cuarto menguante

Hourly Weather History & Observations

Hora (CEST) Temp. Índice de calor Punto de rocío Humedad Presión Visibilidad Wind Dir Velocidad del viento Velocidad de ráfagas Precip Eventos Condiciones
12:00 AM 78 ° F - 65 ° F 55% 30.11 pul 19 mi ONO 4.6 mph - -  
12:00 AM 77.0 ° F - 64.4 ° F 65% 30.09 pul - Oeste 5.8 mph - N/A   Despejado
12:30 AM 77.0 ° F - 64.4 ° F 65% 30.09 pul - Variable 2.3 mph - N/A   Despejado
1:00 AM 78 ° F - 64 ° F 54% 30.11 pul 19 mi Norte 6.9 mph - -  
1:00 AM 77.0 ° F - 64.4 ° F 65% 30.09 pul - ONO 5.8 mph - N/A   Despejado
1:30 AM 77.0 ° F - 66.2 ° F 69% 30.09 pul - NO 5.8 mph - N/A   Despejado
2:00 AM 78 ° F - 65 ° F 56% 30.10 pul 19 mi Norte 8.1 mph - -   Parcialmente nublado
2:00 AM 77.0 ° F - 66.2 ° F 69% 30.09 pul - NNO 4.6 mph - N/A   Despejado
2:30 AM 77.0 ° F - 66.2 ° F 69% 30.09 pul - Variable 1.2 mph - N/A   Despejado
3:00 AM 77 ° F - 65 ° F 59% 30.09 pul 19 mi Norte 6.9 mph - -  
3:00 AM 77.0 ° F - 66.2 ° F 69% 30.09 pul - Norte 2.3 mph - N/A   Despejado
3:30 AM 77.0 ° F - 66.2 ° F 69% 30.09 pul 6.2 mi NO 4.6 mph - N/A   Parcialmente nublado
4:00 AM 77 ° F - 65 ° F 59% 30.09 pul 16 mi Norte 5.8 mph - -  
4:00 AM 77.0 ° F - 66.2 ° F 69% 30.06 pul 6.2 mi NO 3.5 mph - N/A   Parcialmente nublado
4:30 AM 75.2 ° F - 66.2 ° F 73% 30.06 pul 6.2 mi NO 2.3 mph - N/A   Parcialmente nublado
5:00 AM 76 ° F - 65 ° F 60% 30.09 pul 2 mi Norte 5.8 mph - -   Nubes dispersas
5:00 AM 75.2 ° F - 66.2 ° F 73% 30.06 pul 6.2 mi NNO 4.6 mph - N/A   Parcialmente nublado
5:30 AM 75.2 ° F - 64.4 ° F 69% 30.06 pul 6.2 mi NNO 3.5 mph - N/A   Parcialmente nublado
6:00 AM 75 ° F - 65 ° F 63% 30.09 pul 13 mi Norte 4.6 mph - -  
6:00 AM 75.2 ° F - 64.4 ° F 69% 30.09 pul 6.2 mi Variable 2.3 mph - N/A   Parcialmente nublado
6:30 AM 75.2 ° F - 66.2 ° F 73% 30.09 pul 6.2 mi NNE 3.5 mph - N/A   Parcialmente nublado
7:00 AM 75 ° F - 65 ° F 64% 30.10 pul 14 mi Norte 5.8 mph - -  
7:00 AM 75.2 ° F - 66.2 ° F 73% 30.09 pul 6.2 mi NE 4.6 mph - N/A   Parcialmente nublado
7:30 AM 75.2 ° F - 66.2 ° F 73% 30.09 pul 6.2 mi Este 4.6 mph - N/A   Parcialmente nublado
8:00 AM 79 ° F - 69 ° F 65% 30.11 pul 18 mi Este 8.1 mph - -   Nubes dispersas
8:00 AM 78.8 ° F - 69.8 ° F 74% 30.09 pul 6.2 mi Este 8.1 mph - N/A   Parcialmente nublado
8:30 AM 78.8 ° F - 68.0 ° F 69% 30.09 pul 6.2 mi NE 9.2 mph - N/A   Parcialmente nublado
9:00 AM 80 ° F - 67 ° F 57% 30.13 pul 19 mi ENE 8.1 mph - -  
9:00 AM 78.8 ° F - 68.0 ° F 69% 30.12 pul 6.2 mi NE 9.2 mph - N/A   Parcialmente nublado
9:30 AM 78.8 ° F - 68.0 ° F 69% 30.12 pul 6.2 mi Este 6.9 mph - N/A   Parcialmente nublado
10:00 AM 82 ° F - 69 ° F 55% 30.13 pul 19 mi Este 6.9 mph - -  
10:00 AM 80.6 ° F 83.9 ° F 69.8 ° F 70% 30.12 pul 6.2 mi Este 8.1 mph - N/A   Parcialmente nublado
10:30 AM 80.6 ° F 83.2 ° F 68.0 ° F 65% 30.12 pul 6.2 mi Este 5.8 mph - N/A   Parcialmente nublado
11:00 AM 84 ° F - 67 ° F 47% 30.12 pul 16 mi ESE 8.1 mph - -   Nubes dispersas
11:00 AM 82.4 ° F 85.4 ° F 68.0 ° F 62% 30.12 pul 6.2 mi Este 8.1 mph - N/A   Parcialmente nublado
11:30 AM 82.4 ° F 84.6 ° F 66.2 ° F 58% 30.12 pul 6.2 mi Este 8.1 mph - N/A   Parcialmente nublado
12:00 PM 83 ° F - 65 ° F 46% 30.12 pul 19 mi ESE 8.1 mph - -  
12:00 PM 82.4 ° F 84.6 ° F 66.2 ° F 58% 30.12 pul 6.2 mi Este 8.1 mph - N/A   Parcialmente nublado
12:30 PM 82.4 ° F 85.4 ° F 68.0 ° F 62% 30.12 pul 6.2 mi Este 11.5 mph - N/A   Parcialmente nublado
1:00 PM 83 ° F - 67 ° F 50% 30.13 pul 19 mi ESE 10.4 mph - -  
1:00 PM 82.4 ° F 85.4 ° F 68.0 ° F 62% 30.12 pul 6.2 mi Este 11.5 mph - N/A   Parcialmente nublado
1:30 PM 82.4 ° F 85.4 ° F 68.0 ° F 62% 30.12 pul 6.2 mi Este 9.2 mph - N/A   Parcialmente nublado
2:00 PM 83 ° F - 69 ° F 54% 30.12 pul 19 mi ESE 10.4 mph - -   Despejado
2:00 PM 82.4 ° F 86.3 ° F 69.8 ° F 66% 30.09 pul - Este 10.4 mph - N/A   Despejado
2:30 PM 82.4 ° F 85.4 ° F 68.0 ° F 62% 30.09 pul - Este 9.2 mph - N/A   Despejado
3:00 PM 84 ° F - 70 ° F 55% 30.11 pul 18 mi ESE 10.4 mph - -  
3:00 PM 82.4 ° F 87.2 ° F 71.6 ° F 70% 30.09 pul 6.2 mi ESE 9.2 mph - N/A   Parcialmente nublado
3:30 PM 82.4 ° F 86.3 ° F 69.8 ° F 66% 30.09 pul 6.2 mi ESE 8.1 mph - N/A   Parcialmente nublado
4:00 PM 84 ° F - 70 ° F 55% 30.09 pul 19 mi ESE 9.2 mph - -  
4:00 PM 82.4 ° F 87.2 ° F 71.6 ° F 70% 30.09 pul 6.2 mi ESE 9.2 mph - N/A   Parcialmente nublado
4:30 PM 82.4 ° F 87.2 ° F 71.6 ° F 70% 30.06 pul 6.2 mi ESE 9.2 mph - N/A   Parcialmente nublado
5:00 PM 84 ° F - 69 ° F 52% 30.09 pul 19 mi SE 8.1 mph - -   Nubes dispersas
5:00 PM 82.4 ° F 86.3 ° F 69.8 ° F 66% 30.06 pul 6.2 mi ESE 8.1 mph - N/A   Parcialmente nublado
5:30 PM 82.4 ° F 85.4 ° F 68.0 ° F 62% 30.06 pul 6.2 mi ESE 9.2 mph - N/A   Parcialmente nublado
6:00 PM 84 ° F - 67 ° F 48% 30.08 pul 19 mi SE 8.1 mph - -  
6:00 PM 82.4 ° F 85.4 ° F 68.0 ° F 62% 30.06 pul 6.2 mi Este 8.1 mph - N/A   Parcialmente nublado
6:30 PM 82.4 ° F 85.4 ° F 68.0 ° F 62% 30.06 pul 6.2 mi ESE 9.2 mph - N/A   Parcialmente nublado
7:00 PM 82 ° F - 68 ° F 53% 30.07 pul 19 mi ESE 9.2 mph - -  
7:00 PM 80.6 ° F 83.2 ° F 68.0 ° F 65% 30.06 pul 6.2 mi ESE 8.1 mph - N/A   Parcialmente nublado
7:30 PM 80.6 ° F 83.2 ° F 68.0 ° F 65% 30.06 pul 6.2 mi ESE 6.9 mph - N/A   Parcialmente nublado
8:00 PM 82 ° F - 68 ° F 53% 30.06 pul 19 mi SE 9.2 mph - -   Nubes dispersas
8:00 PM 80.6 ° F 83.2 ° F 68.0 ° F 65% 30.06 pul 6.2 mi ESE 8.1 mph - N/A   Parcialmente nublado
8:30 PM 80.6 ° F 83.2 ° F 68.0 ° F 65% 30.06 pul - SE 5.8 mph - N/A   Despejado
9:00 PM 81 ° F - 68 ° F 57% 30.07 pul 19 mi SSE 6.9 mph - -  
9:00 PM 80.6 ° F 83.2 ° F 68.0 ° F 65% 30.06 pul 6.2 mi SE 4.6 mph - N/A   Parcialmente nublado
9:30 PM 78.8 ° F - 68.0 ° F 69% 30.06 pul 6.2 mi SSE 3.5 mph - N/A   Parcialmente nublado
10:00 PM 78.8 ° F - 68.0 ° F 69% 30.06 pul 6.2 mi SSE 3.5 mph - N/A   Parcialmente nublado
10:30 PM 78.8 ° F - 68.0 ° F 69% 30.06 pul 6.2 mi Sur 3.5 mph - N/A   Parcialmente nublado
11:00 PM 79 ° F - 67 ° F 58% 30.09 pul 16 mi SO 4.6 mph - -   Nubes dispersas
11:00 PM 78.8 ° F - 68.0 ° F 69% 30.06 pul 6.2 mi Variable 2.3 mph - N/A   Parcialmente nublado
11:30 PM 78.8 ° F - 68.0 ° F 69% 30.06 pul 6.2 mi Sin viento Sin viento - N/A   Parcialmente nublado